DLH45E EDDH-LOWW

Flight info

Callsign DLH45E
Flight time 1h 10m
Altitude 39000
Route RAMAR6G/33 RAMAR Z998 RATMO DCT HDO DCT EVIKU DCT BITSI DCT MIKOV MIKOV8W
Aircraft A20N/M-SDE2E3FGHIRWXY/LB1

Departure

Time 2026-04-25 19:29
Airport Hamburg Helmut Schmidt Airport (EDDH)

Arrival

Time 2026-04-25 20:39
Airport Vienna International Airport (LOWW)
Time Latitude Longitude Altitude Speed Heading
2026-04-25 18:54 53.63450 10.00311 46 ft 0 kts 89°
2026-04-25 19:13 53.63449 10.00290 44 ft 2 kts 88°
2026-04-25 19:13 53.63449 10.00266 44 ft 2 kts 88°
2026-04-25 19:13 53.63448 10.00242 42 ft 2 kts 104°
2026-04-25 19:13 53.63455 10.00222 42 ft 2 kts 158°
2026-04-25 19:14 53.63460 10.00218 40 ft 0 kts 175°
2026-04-25 19:18 53.63457 10.00219 42 ft 3 kts 176°
2026-04-25 19:18 53.63411 10.00195 46 ft 12 kts 193°
2026-04-25 19:18 53.63348 10.00198 45 ft 0 kts 176°
2026-04-25 19:19 53.63344 10.00199 45 ft 4 kts 176°
2026-04-25 19:19 53.63309 10.00203 45 ft 11 kts 176°
2026-04-25 19:20 53.63200 10.00073 45 ft 20 kts 230°
2026-04-25 19:20 53.63123 9.99917 45 ft 7 kts 229°
2026-04-25 19:20 53.63057 9.99909 44 ft 12 kts 158°
2026-04-25 19:20 53.62969 9.99979 45 ft 16 kts 165°
2026-04-25 19:21 53.62900 9.99920 46 ft 0 kts 240°
2026-04-25 19:26 53.62899 9.99919 46 ft 1 kts 240°
2026-04-25 19:27 53.62891 9.99892 44 ft 5 kts 241°
2026-04-25 19:27 53.62874 9.99836 45 ft 10 kts 247°
2026-04-25 19:27 53.62915 9.99706 47 ft 0 kts 332°
2026-04-25 19:28 53.62978 9.99650 46 ft 36 kts 332°
2026-04-25 19:28 53.63408 9.99278 44 ft 100 kts 332°
2026-04-25 19:28 53.64223 9.98570 182 ft 129 kts 330°
2026-04-25 19:29 53.65001 9.97930 961 ft 110 kts 326°
2026-04-25 19:29 53.65636 9.97370 1687 ft 96 kts 328°
2026-04-25 19:29 53.66203 9.96859 2239 ft 94 kts 328°
2026-04-25 19:29 53.66837 9.96399 2697 ft 101 kts 337°
2026-04-25 19:30 53.67553 9.95989 3060 ft 115 kts 336°
2026-04-25 19:30 53.68322 9.95532 3607 ft 117 kts 339°
2026-04-25 19:30 53.69079 9.95193 4262 ft 111 kts 344°
2026-04-25 19:30 53.69869 9.95023 4698 ft 122 kts 349°
2026-04-25 19:31 53.70774 9.94967 5072 ft 133 kts 351°
2026-04-25 19:31 53.71649 9.94903 5857 ft 116 kts 348°
2026-04-25 19:31 53.72493 9.94980 6340 ft 126 kts
2026-04-25 19:31 53.73340 9.95565 6716 ft 143 kts 18°
2026-04-25 19:32 53.74131 9.96773 6921 ft 173 kts 41°
2026-04-25 19:32 53.74749 9.98691 7172 ft 191 kts 50°
2026-04-25 19:32 53.75344 10.00811 7324 ft 208 kts 52°
2026-04-25 19:32 53.75758 10.02326 7434 ft 218 kts 53°
2026-04-25 19:33 53.76633 10.05654 7563 ft 244 kts 55°
2026-04-25 19:33 53.77363 10.08391 7721 ft 260 kts 54°
2026-04-25 19:33 53.78152 10.11177 7923 ft 273 kts 54°
2026-04-25 19:33 53.79088 10.14378 8176 ft 285 kts 53°
2026-04-25 19:34 53.79928 10.17181 8430 ft 292 kts 53°
2026-04-25 19:34 53.80836 10.20193 8909 ft 293 kts 53°
2026-04-25 19:34 53.81728 10.23349 9407 ft 290 kts 54°
2026-04-25 19:34 53.82579 10.26534 9910 ft 303 kts 55°
2026-04-25 19:35 53.83453 10.29814 10520 ft 313 kts 55°
2026-04-25 19:35 53.84263 10.33451 10871 ft 345 kts 66°
2026-04-25 19:35 53.84571 10.37667 11295 ft 379 kts 84°
2026-04-25 19:35 53.84092 10.42140 12141 ft 396 kts 104°
2026-04-25 19:36 53.82777 10.46335 13090 ft 407 kts 124°
2026-04-25 19:36 53.80786 10.49812 13877 ft 419 kts 141°
2026-04-25 19:36 53.78427 10.52795 14473 ft 428 kts 146°
2026-04-25 19:36 53.75915 10.55732 15327 ft 427 kts 146°
2026-04-25 19:37 53.74300 10.57693 15909 ft 429 kts 144°
2026-04-25 19:37 53.71138 10.61911 16504 ft 437 kts 140°
2026-04-25 19:37 53.69613 10.64098 16948 ft 441 kts 139°
2026-04-25 19:37 53.66438 10.68754 17941 ft 448 kts 139°
2026-04-25 19:38 53.64872 10.71063 18396 ft 451 kts 139°
2026-04-25 19:38 53.61694 10.75731 19258 ft 456 kts 139°
2026-04-25 19:38 53.59285 10.79252 19904 ft 460 kts 139°
2026-04-25 19:38 53.56866 10.82775 20535 ft 463 kts 139°
2026-04-25 19:39 53.54383 10.86408 21167 ft 467 kts 136°
2026-04-25 19:39 53.52255 10.90450 21767 ft 469 kts 125°
2026-04-25 19:39 53.50299 10.94857 22259 ft 477 kts 124°
2026-04-25 19:39 53.48302 10.99372 22840 ft 479 kts 124°
2026-04-25 19:40 53.46341 11.03846 23600 ft 480 kts 124°
2026-04-25 19:40 53.44339 11.08418 24084 ft 484 kts 124°
2026-04-25 19:40 53.42348 11.12966 24598 ft 487 kts 124°
2026-04-25 19:40 53.40315 11.17609 25124 ft 490 kts 124°
2026-04-25 19:41 53.39143 11.20284 25402 ft 492 kts 124°
2026-04-25 19:41 53.36916 11.25365 25928 ft 495 kts 124°
2026-04-25 19:41 53.34894 11.29979 26401 ft 498 kts 124°
2026-04-25 19:41 53.33530 11.33087 26708 ft 500 kts 124°
2026-04-25 19:42 53.30765 11.39389 27206 ft 508 kts 124°
2026-04-25 19:42 53.28683 11.44126 27595 ft 511 kts 124°
2026-04-25 19:42 53.26497 11.49096 28088 ft 513 kts 124°
2026-04-25 19:42 53.24427 11.53798 28479 ft 516 kts 124°
2026-04-25 19:43 53.22289 11.58654 28885 ft 519 kts 124°
2026-04-25 19:43 53.20178 11.63441 29274 ft 522 kts 124°
2026-04-25 19:43 53.18016 11.68340 29655 ft 524 kts 124°
2026-04-25 19:43 53.15815 11.73326 30055 ft 525 kts 124°
2026-04-25 19:44 53.13675 11.78211 30554 ft 523 kts 124°
2026-04-25 19:44 53.11474 11.83225 30801 ft 530 kts 124°
2026-04-25 19:44 53.09234 11.88314 31034 ft 534 kts 124°
2026-04-25 19:44 53.07115 11.93114 31440 ft 534 kts 124°
2026-04-25 19:45 53.04877 11.98165 31922 ft 532 kts 124°
2026-04-25 19:45 53.02574 12.02962 32371 ft 532 kts 131°
2026-04-25 19:45 52.99863 12.07192 32797 ft 532 kts 143°
2026-04-25 19:45 52.96846 12.10878 33217 ft 530 kts 145°
2026-04-25 19:46 52.93874 12.14407 33623 ft 530 kts 145°
2026-04-25 19:46 52.90853 12.17953 34029 ft 529 kts 145°
2026-04-25 19:46 52.87891 12.21413 34427 ft 527 kts 146°
2026-04-25 19:46 52.84871 12.24932 34660 ft 529 kts 146°
2026-04-25 19:47 52.81843 12.28452 35020 ft 527 kts 146°
2026-04-25 19:47 52.78864 12.31910 35420 ft 524 kts 146°
2026-04-25 19:47 52.75878 12.35369 35788 ft 522 kts 146°
2026-04-25 19:47 52.72918 12.38793 36149 ft 520 kts 146°
2026-04-25 19:48 52.69966 12.42202 36491 ft 518 kts 146°
2026-04-25 19:48 52.67016 12.45602 36827 ft 516 kts 146°
2026-04-25 19:48 52.64082 12.48978 37149 ft 514 kts 146°
2026-04-25 19:48 52.61165 12.52330 37460 ft 512 kts 147°
2026-04-25 19:49 52.58244 12.55681 37706 ft 511 kts 147°
2026-04-25 19:49 52.56315 12.57892 38053 ft 506 kts 147°
2026-04-25 19:49 52.52458 12.62305 38444 ft 504 kts 147°
2026-04-25 19:49 52.49581 12.65589 38674 ft 503 kts 147°
2026-04-25 19:50 52.43881 12.72078 38993 ft 502 kts 147°
2026-04-25 19:50 52.40913 12.75449 39029 ft 502 kts 147°
2026-04-25 19:51 52.35223 12.81897 39029 ft 501 kts 147°
2026-04-25 19:51 52.29483 12.88381 39007 ft 501 kts 148°
2026-04-25 19:52 52.23746 12.94841 39025 ft 500 kts 148°
2026-04-25 19:52 52.17984 13.01308 39016 ft 501 kts 148°
2026-04-25 19:53 52.12133 13.07853 39017 ft 501 kts 148°
2026-04-25 19:53 52.06415 13.14229 39019 ft 501 kts 148°
2026-04-25 19:54 52.00702 13.20579 39004 ft 500 kts 148°
2026-04-25 19:54 51.94932 13.26971 39001 ft 500 kts 148°
2026-04-25 19:55 51.89166 13.33342 38998 ft 501 kts 148°
2026-04-25 19:55 51.83430 13.39657 38993 ft 501 kts 148°
2026-04-25 19:56 51.77619 13.46035 38998 ft 501 kts 149°
2026-04-25 19:56 51.71859 13.52334 38990 ft 499 kts 148°
2026-04-25 19:57 51.65984 13.58742 38993 ft 499 kts 148°
2026-04-25 19:57 51.60297 13.64926 38999 ft 500 kts 149°
2026-04-25 19:58 51.54556 13.71149 38997 ft 500 kts 149°
2026-04-25 19:58 51.48734 13.77440 38996 ft 500 kts 149°
2026-04-25 19:59 51.42995 13.83617 38994 ft 498 kts 148°
2026-04-25 19:59 51.37150 13.89893 38991 ft 498 kts 148°
2026-04-25 20:00 51.31445 13.96001 39009 ft 498 kts 148°
2026-04-25 20:00 51.25743 14.02085 39007 ft 498 kts 148°
2026-04-25 20:01 51.17033 14.11346 38997 ft 495 kts 148°
2026-04-25 20:01 51.11303 14.17414 38998 ft 494 kts 148°
2026-04-25 20:02 51.05565 14.23474 38998 ft 495 kts 148°
2026-04-25 20:02 51.00768 14.28524 39005 ft 494 kts 148°
2026-04-25 20:03 50.94889 14.34306 38992 ft 496 kts 155°
2026-04-25 20:03 50.88526 14.38425 39003 ft 490 kts 167°
2026-04-25 20:04 50.81961 14.40939 38999 ft 487 kts 171°
2026-04-25 20:04 50.75306 14.43382 38985 ft 487 kts 171°
2026-04-25 20:05 50.68727 14.45814 39000 ft 487 kts 171°
2026-04-25 20:05 50.62177 14.48230 39001 ft 482 kts 171°
2026-04-25 20:06 50.55585 14.50654 38998 ft 483 kts 171°
2026-04-25 20:06 50.49082 14.53459 39003 ft 486 kts 161°
2026-04-25 20:07 50.43141 14.58801 38997 ft 493 kts 143°
2026-04-25 20:07 50.38191 14.66069 38997 ft 493 kts 136°
2026-04-25 20:08 50.33255 14.73581 38992 ft 492 kts 137°
2026-04-25 20:08 50.28313 14.81041 38984 ft 492 kts 137°
2026-04-25 20:09 50.23368 14.88477 38988 ft 492 kts 137°
2026-04-25 20:09 50.18436 14.95871 38989 ft 492 kts 137°
2026-04-25 20:10 50.13529 15.03206 38983 ft 491 kts 137°
2026-04-25 20:10 50.08546 15.10631 38980 ft 491 kts 137°
2026-04-25 20:11 50.03676 15.17866 38983 ft 491 kts 137°
2026-04-25 20:11 49.98650 15.25312 38974 ft 492 kts 138°
2026-04-25 20:12 49.93684 15.32648 38970 ft 492 kts 138°
2026-04-25 20:12 49.90349 15.37562 38979 ft 492 kts 138°
2026-04-25 20:13 49.83709 15.47314 38957 ft 493 kts 138°
2026-04-25 20:13 49.78728 15.54603 38991 ft 493 kts 138°
2026-04-25 20:14 49.73723 15.61909 38994 ft 493 kts 138°
2026-04-25 20:14 49.71241 15.65523 38853 ft 493 kts 138°
2026-04-25 20:14 49.68714 15.69197 38457 ft 494 kts 138°
2026-04-25 20:15 49.66196 15.72851 37694 ft 497 kts 138°
2026-04-25 20:15 49.63669 15.76512 36934 ft 498 kts 138°
2026-04-25 20:15 49.61167 15.80134 36203 ft 499 kts 138°
2026-04-25 20:15 49.58633 15.83796 35449 ft 500 kts 138°
2026-04-25 20:16 49.56091 15.87465 34668 ft 501 kts 138°
2026-04-25 20:16 49.53522 15.91168 33869 ft 503 kts 138°
2026-04-25 20:16 49.50961 15.94854 33037 ft 503 kts 138°
2026-04-25 20:16 49.48408 15.98520 32221 ft 503 kts 138°
2026-04-25 20:17 49.45845 16.02196 31380 ft 503 kts 138°
2026-04-25 20:17 49.43313 16.05823 30527 ft 504 kts 138°
2026-04-25 20:17 49.40739 16.09504 29752 ft 502 kts 138°
2026-04-25 20:17 49.38205 16.13125 29242 ft 493 kts 138°
2026-04-25 20:18 49.35710 16.16684 28657 ft 486 kts 138°
2026-04-25 20:18 49.33242 16.20179 28070 ft 479 kts 140°
2026-04-25 20:18 49.30632 16.23308 27482 ft 471 kts 148°
2026-04-25 20:18 49.27842 16.25884 26906 ft 463 kts 156°
2026-04-25 20:19 49.24966 16.28012 26348 ft 457 kts 157°
2026-04-25 20:19 49.22143 16.30083 25796 ft 452 kts 157°
2026-04-25 20:19 49.19294 16.32183 25251 ft 448 kts 157°
2026-04-25 20:19 49.16498 16.34248 24698 ft 444 kts 157°
2026-04-25 20:20 49.13730 16.36291 24118 ft 441 kts 157°
2026-04-25 20:20 49.10963 16.38331 23576 ft 437 kts 157°
2026-04-25 20:20 49.08228 16.40345 22957 ft 433 kts 157°
2026-04-25 20:20 49.05482 16.42367 22420 ft 428 kts 157°
2026-04-25 20:21 49.02862 16.44292 21886 ft 423 kts 157°
2026-04-25 20:21 49.00219 16.46232 21340 ft 418 kts 157°
2026-04-25 20:21 48.97620 16.48138 20830 ft 413 kts 158°
2026-04-25 20:21 48.95034 16.50031 20303 ft 409 kts 158°
2026-04-25 20:22 48.92487 16.51892 19796 ft 405 kts 159°
2026-04-25 20:22 48.91608 16.52468 19666 ft 402 kts 163°
2026-04-25 20:22 48.87071 16.54533 19253 ft 411 kts 168°
2026-04-25 20:22 48.84310 16.55731 19014 ft 407 kts 168°
2026-04-25 20:23 48.81634 16.56864 18781 ft 404 kts 169°
2026-04-25 20:23 48.78896 16.57998 18543 ft 403 kts 169°
2026-04-25 20:23 48.76181 16.59107 18288 ft 402 kts 169°
2026-04-25 20:23 48.73484 16.60200 18011 ft 401 kts 169°
2026-04-25 20:24 48.70784 16.61294 17625 ft 400 kts 169°
2026-04-25 20:24 48.68101 16.62380 17100 ft 396 kts 169°
2026-04-25 20:24 48.65472 16.63445 16589 ft 391 kts 169°
2026-04-25 20:24 48.62866 16.64499 16140 ft 385 kts 169°
2026-04-25 20:25 48.60281 16.65542 15683 ft 386 kts 169°
2026-04-25 20:25 48.57656 16.66599 15182 ft 383 kts 169°
2026-04-25 20:25 48.55085 16.67635 14697 ft 379 kts 169°
2026-04-25 20:25 48.52606 16.68634 14209 ft 375 kts 169°
2026-04-25 20:26 48.50021 16.69671 13718 ft 371 kts 169°
2026-04-25 20:26 48.47538 16.70668 13189 ft 368 kts 169°
2026-04-25 20:26 48.45095 16.71647 12666 ft 366 kts 169°
2026-04-25 20:26 48.42636 16.72632 12168 ft 364 kts 169°
2026-04-25 20:27 48.40207 16.73604 11647 ft 360 kts 169°
2026-04-25 20:27 48.37789 16.74571 11150 ft 357 kts 169°
2026-04-25 20:27 48.36204 16.75204 10821 ft 355 kts 169°
2026-04-25 20:27 48.33742 16.76187 10306 ft 351 kts 169°
2026-04-25 20:28 48.31454 16.77101 9845 ft 344 kts 169°
2026-04-25 20:28 48.29163 16.78016 9314 ft 334 kts 169°
2026-04-25 20:28 48.26995 16.78878 8784 ft 324 kts 168°
2026-04-25 20:28 48.24869 16.79722 8293 ft 315 kts 168°
2026-04-25 20:29 48.22726 16.80573 7769 ft 307 kts 168°
2026-04-25 20:29 48.20677 16.81385 7273 ft 300 kts 168°
2026-04-25 20:29 48.18681 16.82176 6786 ft 294 kts 168°
2026-04-25 20:29 48.16722 16.82953 6296 ft 288 kts 168°
2026-04-25 20:30 48.14796 16.83715 5792 ft 284 kts 167°
2026-04-25 20:30 48.12923 16.84455 5284 ft 280 kts 167°
2026-04-25 20:30 48.11233 16.85566 4812 ft 278 kts 143°
2026-04-25 20:30 48.09931 16.87804 4283 ft 273 kts 119°
2026-04-25 20:31 48.09072 16.90339 3787 ft 271 kts 112°
2026-04-25 20:31 48.08336 16.92835 3347 ft 268 kts 111°
2026-04-25 20:31 48.07579 16.95370 3221 ft 252 kts 112°
2026-04-25 20:31 48.06828 16.97641 3095 ft 240 kts 123°
2026-04-25 20:32 48.05572 16.99266 2984 ft 238 kts 160°
2026-04-25 20:32 48.03766 16.99561 3326 ft 249 kts 193°
2026-04-25 20:32 48.02202 16.98713 3022 ft 246 kts 213°
2026-04-25 20:32 48.00888 16.97016 2996 ft 219 kts 246°
2026-04-25 20:33 48.00501 16.95046 3009 ft 217 kts 272°
2026-04-25 20:33 48.00459 16.92816 3000 ft 213 kts 267°
2026-04-25 20:33 48.00438 16.90573 2994 ft 211 kts 284°
2026-04-25 20:33 48.00680 16.89247 3002 ft 210 kts 292°
2026-04-25 20:34 48.01468 16.86492 3016 ft 209 kts 297°
2026-04-25 20:34 48.02069 16.84643 3009 ft 199 kts 298°
2026-04-25 20:34 48.02655 16.82845 3019 ft 194 kts 298°
2026-04-25 20:34 48.03246 16.81039 3016 ft 192 kts 298°
2026-04-25 20:35 48.03865 16.79142 3010 ft 190 kts 298°
2026-04-25 20:35 48.04414 16.77462 3020 ft 187 kts 297°
2026-04-25 20:35 48.04969 16.75757 3015 ft 170 kts 298°
2026-04-25 20:35 48.05484 16.74182 3007 ft 175 kts 298°
2026-04-25 20:36 48.06000 16.72595 2840 ft 165 kts 298°
2026-04-25 20:36 48.06497 16.71074 2586 ft 158 kts 298°
2026-04-25 20:36 48.06968 16.69631 2375 ft 151 kts 297°
2026-04-25 20:36 48.07415 16.68260 2165 ft 143 kts 296°
2026-04-25 20:37 48.07835 16.66971 1984 ft 131 kts 296°
2026-04-25 20:37 48.08225 16.65767 1821 ft 123 kts 297°
2026-04-25 20:37 48.08599 16.64632 1649 ft 123 kts 297°
2026-04-25 20:37 48.08975 16.63477 1487 ft 126 kts 298°
2026-04-25 20:38 48.09358 16.62298 1326 ft 128 kts 296°
2026-04-25 20:38 48.09747 16.61111 1157 ft 131 kts 296°
2026-04-25 20:38 48.10151 16.59863 982 ft 129 kts 294°
2026-04-25 20:38 48.10419 16.59045 848 ft 131 kts 295°
2026-04-25 20:39 48.10875 16.57662 674 ft 131 kts 295°
2026-04-25 20:39 48.11252 16.56496 626 ft 100 kts 296°
2026-04-25 20:39 48.11464 16.55848 623 ft 44 kts 297°
2026-04-25 20:39 48.11539 16.55618 628 ft 31 kts 296°
2026-04-25 20:40 48.11693 16.55299 614 ft 31 kts 316°
2026-04-25 20:40 48.11757 16.55207 611 ft 10 kts 315°
2026-04-25 20:40 48.11820 16.55146 622 ft 12 kts 340°
2026-04-25 20:40 48.11853 16.55141 616 ft 0 kts 10°
2026-04-25 20:41 48.11854 16.55142 616 ft 0 kts 10°
2026-04-25 20:41 48.11855 16.55142 615 ft 0 kts 11°
2026-04-25 20:42 48.11862 16.55145 610 ft 0 kts 17°
2026-04-25 20:42 48.11874 16.55159 624 ft 4 kts 44°
2026-04-25 20:42 48.11879 16.55211 613 ft 7 kts 96°
2026-04-25 20:43 48.11857 16.55288 614 ft 10 kts 115°
2026-04-25 20:43 48.11820 16.55401 611 ft 13 kts 118°
2026-04-25 20:43 48.11776 16.55536 610 ft 14 kts 115°
2026-04-25 20:43 48.11730 16.55676 622 ft 16 kts 116°
2026-04-25 20:44 48.11686 16.55809 624 ft 14 kts 116°
2026-04-25 20:44 48.11640 16.55951 625 ft 16 kts 115°
2026-04-25 20:44 48.11584 16.56123 624 ft 17 kts 116°
2026-04-25 20:44 48.11526 16.56301 625 ft 20 kts 116°
2026-04-25 20:45 48.11458 16.56511 612 ft 23 kts 116°
2026-04-25 20:45 48.11408 16.56665 625 ft 13 kts 116°
2026-04-25 20:45 48.11398 16.56695 624 ft 0 kts 116°
2026-04-25 20:46 48.11395 16.56706 624 ft 3 kts 116°
2026-04-25 20:46 48.11381 16.56749 623 ft 6 kts 116°
2026-04-25 20:47 48.11359 16.56816 624 ft 8 kts 116°
2026-04-25 20:47 48.11334 16.56892 629 ft 9 kts 117°
2026-04-25 20:47 48.11305 16.56980 626 ft 11 kts 116°
2026-04-25 20:47 48.11266 16.57102 626 ft 15 kts 116°
2026-04-25 20:48 48.11233 16.57233 621 ft 14 kts 89°
2026-04-25 20:48 48.11308 16.57326 623 ft 18 kts 27°
2026-04-25 20:48 48.11429 16.57415 612 ft 17 kts 26°
2026-04-25 20:48 48.11518 16.57468 607 ft 6 kts 348°
2026-04-25 20:49 48.11574 16.57443 619 ft 10 kts 343°
2026-04-25 20:49 48.11644 16.57412 611 ft 12 kts 344°
2026-04-25 20:49 48.11738 16.57375 607 ft 16 kts 345°
2026-04-25 20:49 48.11832 16.57288 602 ft 16 kts 302°
2026-04-25 20:50 48.11863 16.57127 601 ft 17 kts 293°
2026-04-25 20:50 48.11873 16.57018 600 ft 4 kts 208°
2026-04-25 20:50 48.11843 16.56998 601 ft 6 kts 203°
2026-04-25 20:50 48.11824 16.56984 602 ft 1 kts 206°
2026-04-25 20:51 48.11820 16.56981 602 ft 0 kts 206°